Regional Weather Roundup
Issued by NWS Charleston, SC

Current Version | Previous Version | Graphics & Text | Print | Product List | Glossary On
Versions: 1 2 3 4 5 6 7 8 9 10 11 12 13 14 15 16 17 18 19 20 21 22 23 24 25 26 27 28 29 30 31 32 33 34 35 36 37 38 39 40 41 42 43 44 45 46 47 48 49 50
000 ASUS42 KCHS 171812 RWRCHS REGIONAL WEATHER ROUNDUP NATIONAL WEATHER SERVICE CHARLESTON SC 100 PM EST FRI NOV 17 2017 NOTE: "FAIR" INDICATES FEW OR NO CLOUDS BELOW 12,000 FEET WITH NO SIGNIFICANT WEATHER AND/OR OBSTRUCTIONS TO VISIBILITY. NOT ALL STATIONS ARE QUALITY CONTROLLED. USE DATA WITH CAUTION... ESPECIALLY DEWPOINT OBSERVATIONS. SCZ027-030-031-034>040-042>050-171900- ...SOUTHEAST SOUTH CAROLINA... CITY SKY/WX TMP DP RH WIND PRES REMARKS N CHARLESTON SUNNY 63 37 38 NE8 30.17F 6HR MIN TEMP: 48; 6HR MAX TEMP: 63; WATERFRONT PRK N/A 58 46 64 E13 30.02F JOHNS ISLAND FAIR 63 46 55 E9 30.18S PINOPOLIS N/A 55 39 54 VRB3 30.10F MONCKS CORNER FAIR 59 36 41 CALM 30.18S SUMMERVILLE FAIR 61 36 39 NE3 30.19F BEAUFORT MCAS SUNNY 64 38 38 E3 30.17F 6HR MIN TEMP: 47; 6HR MAX TEMP: 64; BEAUFORT ARPT FAIR 61 39 44 NE7 30.17F HILTON HEAD IS SUNNY 63 48 59 NE9 30.18F WALTERBORO CLEAR 63 36 36 CALM 30.18F ALLENDALE FAIR 63 34 34 E5 30.16F ...SOUTHERN MIDLANDS AND PEE DEE... CITY SKY/WX TMP DP RH WIND PRES REMARKS GEORGETOWN FAIR 59 34 38 NE5 30.19S KINGSTREE FAIR 57 32 38 CALM 30.19F ORANGEBURG SUNNY 60 33 36 E3 30.18F 6HR MIN TEMP: 44; 6HR MAX TEMP: 61; BARNWELL N/A 64 34 32 CALM 30.17F AIKEN FAIR 61 32 33 NE5 30.20F MANNING FAIR 59 37 44 MISG 30.18F COLUMBIA MOSUNNY 62 34 35 NE7 30.18F 6HR MIN TEMP: 35; 6HR MAX TEMP: 62; SUMTER SUNNY 60 32 35 NE6 30.16F 6HR MIN TEMP: 38; 6HR MAX TEMP: 60; FLORENCE SUNNY 59 35 40 VRB5 30.19F 6HR MIN TEMP: 40; 6HR MAX TEMP: 59; MYRTLE BEACH SUNNY 58 35 42 VRB5 30.19F N MYRTLE BEACH SUNNY 58 36 43 NE6 30.17F 6HR MIN TEMP: 43; 6HR MAX TEMP: 58; $$ GAZ063-065-086>088-099>101-113>116-118-119-134>141-150-171900- ...SOUTHEAST GEORGIA... CITY SKY/WX TMP DP RH WIND PRES REMARKS SAVANNAH ARPT SUNNY 68 39 34 NE10 30.16F 6HR MIN TEMP: 41; 6HR MAX TEMP: 68; HUNTER AAF SUNNY 66 46 47 E6 30.13F 6HR MIN TEMP: 45; 6HR MAX TEMP: 67; FORT STEWART SUNNY 69 43 38 E8 30.13F 6HR MIN TEMP: 40; 6HR MAX TEMP: 69; STATESBORO SUNNY 67 31 26 NE5 30.15F SYLVANIA CLEAR 67 40 38 CALM 30.17F CLAXTON FAIR 70 41 34 NE6 30.15F ...CSRA...CENTRAL AND FAR SOUTHEAST GEORGIA... CITY SKY/WX TMP DP RH WIND PRES REMARKS THOMSON SUNNY 64 34 32 S6 30.22F AUGUSTA-BUSH SUNNY 64 32 30 E7 30.17F 6HR MIN TEMP: 34; 6HR MAX TEMP: 65; AUGUSTA-DANIEL SUNNY 64 33 31 VRB5 30.18F SWAINSBORO FAIR 68 37 32 E7 30.16F VIDALIA SUNNY 70 43 37 E9 30.15F EASTMAN FAIR 70 26 18 SE8 30.16F HAZLEHURST FAIR 69 28 21 CALM 30.13F ALMA SUNNY 70 45 40 SE5 30.13F 6HR MIN TEMP: 42; 6HR MAX TEMP: 70; WAYCROSS SUNNY 70 42 35 NE9 30.13F JESUP FAIR 72 48 43 CALM 30.14F BAXLEY FAIR 68 43 40 CALM 30.13F BRUNSWICK MOSUNNY 70 52 52 NE12G17 30.14F SAINT SIMONS SUNNY 69 57 65 NE14 30.13F 6HR MIN TEMP: 48; 6HR MAX TEMP: 71; $$ SCZ027-028-034-036>038-045-046-048>050-GAZ119-141-171900- ...LAKE AND SUPPLEMENTAL COASTAL OBSERVATIONS... STATION/POSITION TIME TEMP WIND PRES WAVE SWELL AIR SEA DIR/SP/G HT/PER HT/PER/DIR (UTC) (F) (DEG/KT/KT) (MB) (FT/S) (FT/S/D) WINYAH BAY NOT AVBL LAKE MURRAY 1720 59 170/ 4/ 5 1021.7 ACE BASIN NERRS 1645 62 60/ 4 1022.0 FORT PULASKI 1748 60 62 90/ 12/ 16 1021.8F SAPELO ISLAND 1700 68 50/ 11 1021.0 $$ ANZ835-935-AMZ111-154-330-350-352-354-370-450-454-472-171900- ...C-MAN AND BUOY OBSERVATIONS... STATION/POSITION TIME TEMP WIND PRES WAVE SWELL AIR SEA DIR/SP/G HT/PER HT/PER/DIR (UTC) (F) (DEG/KT/KT) (MB) (FT/S) (FT/S/D) BUOY 41004 1750 63 75 40/ 16/ 21 1020.5F 6/ 6 2/110/ 9 BUOY 41008 1750 66 69 50/ 16/ 17 1020.1F 3/ 4 2/110/ 8 FOLLY BEACH CMAN 1700 56 40/ 15/ 18 1022.8F CAPERS NEARSHORE 1708 54 63 50/ 17/ 25 1021.7F FRIPP NEARSHORE 1708 58 63 40/ 12/ 23 1020.2F STATION/POSITION TIME TEMP WIND PRES WAVE SWELL AIR SEA DIR/SP/G HT/PER HT/PER/DIR (UTC) (F) (DEG/KT/KT) (MB) (FT/S) (FT/S/D) 5E ST. MARYS GA 1800 66 N/A 3/11 2/100/11 FRYING PAN BUOY 1750 57 71 30/ 14/ 17 1021.0F 5/ 6 2/110/ 8 BUOY 41025 1750 53 64 360/ 17/ 21 1021.1S 5/ 7 3/ 80/11 CAPE LOOKOUT NC 1700 52 10/ 11/ 14 1022.2F BUOY 41002 1750 69 77 30/ 14/ 16 1017.8F 8/ 7 7/ 30/ 7 BUOY 41010 NOT AVBL ST AUGUSTINE FL 1800 68 68 360/ 13/ 13 1019.6F $$

USA.gov is the U.S. government's official web portal to all federal, state and local government web resources and services.